,,PA_Meas_PMT16A,,PR_Meas_QMR101_102,,RH_Meas_QMH101,,SR_Meas_QMS101,,TA_Meas_QMH101,,GenWind,,GenWind,
time,status,PA,status,PR,status,RH,status,SR,status,TA,status,DirAvg,status,SpdAvg,
2011-06-14, 00:00:05,VALID,919.244,VALID,0,VALID,95.5443,VALID,0,VALID,19.3323,VALID,277,VALID,0.505859,
2011-06-14, 00:01:05,VALID,919.253,VALID,0,VALID,95.4909,VALID,0,VALID,19.3518,VALID,277,VALID,0.621875,
2011-06-14, 00:02:05,VALID,919.238,VALID,0,VALID,95.4757,VALID,0,VALID,19.3908,VALID,278,VALID,0.716016,
2011-06-14, 00:03:05,VALID,919.258,VALID,0,VALID,95.2927,VALID,0,VALID,19.3698,VALID,6,VALID,0.580078,
2011-06-14, 00:04:05,VALID,919.239,VALID,0,VALID,95.2546,VALID,0,VALID,19.4298,VALID,7,VALID,0.872266,
2011-06-14, 00:05:05,VALID,919.173,VALID,0,VALID,95.1402,VALID,0,VALID,19.4478,VALID,7,VALID,0.5625,
2011-06-14, 00:06:05,VALID,919.177,VALID,0,VALID,95.0411,VALID,0,VALID,19.4688,VALID,7,VALID,0.538672,
2011-06-14, 00:07:05,VALID,919.14,VALID,0,VALID,95.0106,VALID,0,VALID,19.5078,VALID,6,VALID,0.797656,
2011-06-14, 00:08:05,VALID,919.105,VALID,0,VALID,94.8963,VALID,0,VALID,19.5273,VALID,6,VALID,0.823438,
2011-06-14, 00:09:05,VALID,919.143,VALID,0,VALID,94.8582,VALID,0,VALID,19.5663,VALID,6,VALID,0.435937,
2011-06-14, 00:10:05,VALID,919.148,VALID,0,VALID,94.7972,VALID,0,VALID,19.6053,VALID,7,VALID,0.418359,
2011-06-14, 00:11:05,VALID,919.156,VALID,0,VALID,94.2559,VALID,0,VALID,19.5873,VALID,7,VALID,0.318359,
2011-06-14, 00:12:05,VALID,919.174,VALID,0,VALID,94.2407,VALID,0,VALID,19.6248,VALID,7,VALID,0.624219,
2011-06-14, 00:13:05,VALID,919.156,VALID,0,VALID,94.6447,VALID,0,VALID,19.6623,VALID,6,VALID,0.559375,
2011-06-14, 00:14:05,VALID,919.165,VALID,0,VALID,94.8124,VALID,0.107441,VALID,19.6818,VALID,7,VALID,0.413672,
2011-06-14, 00:15:05,VALID,919.149,VALID,0,VALID,94.881,VALID,0,VALID,19.7028,VALID,7,VALID,0.0988281,
2011-06-14, 00:16:05,VALID,919.165,VALID,0,VALID,94.6066,VALID,0,VALID,19.6038,VALID,7,VALID,0,
2011-06-14, 00:17:05,VALID,919.161,VALID,0,VALID,94.3245,VALID,0.107441,VALID,19.5453,VALID,6,VALID,0,
2011-06-14, 00:18:05,VALID,919.152,VALID,0,VALID,94.2254,VALID,0.107441,VALID,19.5258,VALID,7,VALID,0.431641,
2011-06-14, 00:19:05,VALID,919.16,VALID,0,VALID,94.3245,VALID,0,VALID,19.5453,VALID,7,VALID,0.251563,
2011-06-14, 00:20:05,VALID,919.176,VALID,0,VALID,94.2864,VALID,0.107441,VALID,19.5063,VALID,6,VALID,0.237891,
2011-06-14, 00:21:05,VALID,919.176,VALID,0,VALID,94.233,VALID,0,VALID,19.4868,VALID,6,VALID,0.0226563,
2011-06-14, 00:22:05,VALID,919.197,VALID,0,VALID,94.2864,VALID,0.107441,VALID,19.4673,VALID,7,VALID,0,
2011-06-14, 00:23:05,VALID,919.171,VALID,0,VALID,94.4313,VALID,0,VALID,19.4478,VALID,6,VALID,0,
2011-06-14, 00:24:05,VALID,919.178,VALID,0,VALID,94.5609,VALID,0.107441,VALID,19.4673,VALID,6,VALID,0,
2011-06-14, 00:25:05,VALID,919.14,VALID,0,VALID,94.477,VALID,0,VALID,19.4478,VALID,7,VALID,0,
2011-06-14, 00:26:05,VALID,919.127,VALID,0,VALID,94.4846,VALID,0.107441,VALID,19.4478,VALID,7,VALID,0.248437,
2011-06-14, 00:27:05,VALID,919.055,VALID,0,VALID,94.3931,VALID,0,VALID,19.4283,VALID,6,VALID,0.107422,
2011-06-14, 00:28:05,VALID,919.046,VALID,0,VALID,94.1949,VALID,0,VALID,19.4283,VALID,7,VALID,0.319531,
2011-06-14, 00:29:05,VALID,919.056,VALID,0,VALID,93.8595,VALID,0,VALID,19.3503,VALID,7,VALID,0.486719,
2011-06-14, 00:30:05,VALID,919.031,VALID,0,VALID,93.9815,VALID,0,VALID,19.3113,VALID,7,VALID,0.758203,
2011-06-14, 00:31:05,VALID,919.005,VALID,0,VALID,94.7057,VALID,0,VALID,19.3518,VALID,5,VALID,1.07109,
2011-06-14, 00:32:05,VALID,918.995,VALID,0,VALID,94.9878,VALID,0,VALID,19.3503,VALID,5,VALID,0.826563,
2011-06-14, 00:33:05,VALID,918.967,VALID,0,VALID,95.3537,VALID,0,VALID,19.4283,VALID,5,VALID,1.33438,
2011-06-14, 00:34:05,VALID,918.925,VALID,0,VALID,95.1631,VALID,0.107441,VALID,19.4478,VALID,5,VALID,1.08867,
2011-06-14, 00:35:05,VALID,918.898,VALID,0,VALID,95.2088,VALID,0,VALID,19.5063,VALID,5,VALID,1.06055,
2011-06-14, 00:36:05,VALID,918.911,VALID,0,VALID,95.2088,VALID,0,VALID,19.5648,VALID,5,VALID,1.14258,
2011-06-14, 00:37:05,VALID,918.884,VALID,0,VALID,94.9192,VALID,0,VALID,19.6443,VALID,5,VALID,1.0375,
2011-06-14, 00:38:05,VALID,918.866,VALID,0,VALID,94.599,VALID,0.107441,VALID,19.6623,VALID,5,VALID,1.02734,
2011-06-14, 00:39:05,VALID,918.846,VALID,0,VALID,94.3321,VALID,0,VALID,19.6623,VALID,5,VALID,0.710547,
2011-06-14, 00:40:05,VALID,918.833,VALID,0,VALID,94.477,VALID,0.107441,VALID,19.7208,VALID,5,VALID,0.794141,
2011-06-14, 00:41:05,VALID,918.778,VALID,0,VALID,94.3245,VALID,0,VALID,19.7418,VALID,5,VALID,0.756641,
2011-06-14, 00:42:05,VALID,918.793,VALID,0,VALID,94.2788,VALID,0.107441,VALID,19.7598,VALID,5,VALID,0.584375,
2011-06-14, 00:43:05,VALID,918.75,VALID,0,VALID,94.1492,VALID,0,VALID,19.7598,VALID,5,VALID,0.716406,
2011-06-14, 00:44:05,VALID,918.748,VALID,0,VALID,94.0272,VALID,0,VALID,19.7223,VALID,5,VALID,0.55,
2011-06-14, 00:45:05,VALID,918.715,VALID,0,VALID,93.9434,VALID,0,VALID,19.7418,VALID,5,VALID,0.530859,
2011-06-14, 00:46:05,VALID,918.706,VALID,0,VALID,93.7528,VALID,0,VALID,19.7223,VALID,5,VALID,0.380469,
2011-06-14, 00:47:05,VALID,918.721,VALID,0,VALID,93.707,VALID,0,VALID,19.7238,VALID,5,VALID,0.355469,
2011-06-14, 00:48:05,VALID,918.675,VALID,0,VALID,93.8519,VALID,0,VALID,19.7043,VALID,5,VALID,0.323047,
2011-06-14, 00:49:05,VALID,918.646,VALID,0,VALID,93.9052,VALID,0,VALID,19.6833,VALID,5,VALID,0.401563,
2011-06-14, 00:50:05,VALID,918.634,VALID,0,VALID,93.9357,VALID,0,VALID,19.6833,VALID,5,VALID,0.473047,
2011-06-14, 00:51:05,VALID,918.606,VALID,0,VALID,93.6994,VALID,0,VALID,19.6443,VALID,5,VALID,0.179297,
2011-06-14, 00:52:05,VALID,918.591,VALID,0,VALID,93.7604,VALID,0,VALID,19.6653,VALID,5,VALID,0.0550781,
2011-06-14, 00:53:05,VALID,918.548,VALID,0,VALID,93.6079,VALID,0,VALID,19.6053,VALID,5,VALID,0,
2011-06-14, 00:54:05,VALID,918.513,VALID,0,VALID,93.4021,VALID,0,VALID,19.5468,VALID,5,VALID,0,
2011-06-14, 00:55:05,VALID,918.481,VALID,0,VALID,93.5088,VALID,0,VALID,19.5273,VALID,5,VALID,0,
2011-06-14, 00:56:05,VALID,918.446,VALID,0,VALID,93.425,VALID,0,VALID,19.4688,VALID,5,VALID,0,
2011-06-14, 00:57:05,VALID,918.41,VALID,0,VALID,93.3259,VALID,0,VALID,19.4298,VALID,5,VALID,0,
2011-06-14, 00:58:05,VALID,918.37,VALID,0,VALID,93.5622,VALID,0,VALID,19.4313,VALID,5,VALID,0,
2011-06-14, 00:59:05,VALID,918.343,VALID,0,VALID,92.8456,VALID,0,VALID,19.3533,VALID,5,VALID,0,
2011-06-14, 01:00:05,VALID,918.345,VALID,0,VALID,92.716,VALID,0,VALID,19.2933,VALID,5,VALID,0,
2011-06-14, 01:01:05,VALID,918.362,VALID,0,VALID,93.2344,VALID,0,VALID,19.2738,VALID,5,VALID,0,
2011-06-14, 01:02:04,VALID,918.368,VALID,0,VALID,93.89,VALID,0,VALID,19.3533,VALID,5,VALID,0.368359,
2011-06-14, 01:03:04,VALID,918.352,VALID,0,VALID,93.9967,VALID,0,VALID,19.3128,VALID,5,VALID,0,
2011-06-14, 01:04:04,VALID,918.348,VALID,0,VALID,93.9434,VALID,0,VALID,19.3128,VALID,5,VALID,0.251953,
2011-06-14, 01:05:04,VALID,918.36,VALID,0,VALID,93.8061,VALID,0,VALID,19.2948,VALID,5,VALID,0.192578,
2011-06-14, 01:06:04,VALID,918.314,VALID,0,VALID,94.3017,VALID,0,VALID,19.3143,VALID,5,VALID,0,
2011-06-14, 01:07:04,VALID,918.327,VALID,0,VALID,94.4541,VALID,0,VALID,19.2948,VALID,5,VALID,0,
2011-06-14, 01:08:04,VALID,918.308,VALID,0,VALID,94.7286,VALID,0,VALID,19.2933,VALID,5,VALID,0.344531,
2011-06-14, 01:09:04,VALID,918.287,VALID,0,VALID,94.5609,VALID,0,VALID,19.2933,VALID,5,VALID,0,
2011-06-14, 01:10:04,VALID,918.304,VALID,0,VALID,94.5913,VALID,0,VALID,19.2558,VALID,5,VALID,0.314063,
2011-06-14, 01:11:04,VALID,918.301,VALID,0,VALID,94.9344,VALID,0,VALID,19.3128,VALID,5,VALID,0.19375,
2011-06-14, 01:12:04,VALID,918.317,VALID,0,VALID,94.8048,VALID,0,VALID,19.3128,VALID,5,VALID,0.0101562,
2011-06-14, 01:13:04,VALID,918.291,VALID,0,VALID,94.82,VALID,0,VALID,19.3323,VALID,5,VALID,0,
2011-06-14, 01:14:04,VALID,918.286,VALID,0,VALID,94.6981,VALID,0,VALID,19.3338,VALID,5,VALID,0,
2011-06-14, 01:15:04,VALID,918.237,VALID,0,VALID,94.7133,VALID,0,VALID,19.3323,VALID,5,VALID,0,
2011-06-14, 01:16:04,VALID,918.219,VALID,0,VALID,94.9192,VALID,0,VALID,19.3728,VALID,5,VALID,0.279687,
2011-06-14, 01:17:04,VALID,918.21,VALID,0,VALID,94.5456,VALID,0,VALID,19.3323,VALID,5,VALID,0,
2011-06-14, 01:18:04,VALID,918.213,VALID,0,VALID,94.3321,VALID,0,VALID,19.3323,VALID,5,VALID,0,
2011-06-14, 01:19:04,VALID,918.21,VALID,0,VALID,94.4465,VALID,0,VALID,19.3323,VALID,5,VALID,0.113281,
2011-06-14, 01:20:04,VALID,918.185,VALID,0,VALID,94.4008,VALID,0,VALID,19.3533,VALID,5,VALID,0.466406,
2011-06-14, 01:21:04,VALID,918.173,VALID,0,VALID,94.6523,VALID,0,VALID,19.3923,VALID,5,VALID,0.332422,
2011-06-14, 01:22:04,VALID,918.173,VALID,0,VALID,94.7362,VALID,0,VALID,19.3713,VALID,5,VALID,0.223047,
2011-06-14, 01:23:04,VALID,918.191,VALID,0,VALID,94.5609,VALID,0,VALID,19.3338,VALID,5,VALID,0.182812,
2011-06-14, 01:24:04,VALID,918.186,VALID,0,VALID,94.4617,VALID,0,VALID,19.2948,VALID,5,VALID,0.0761719,
2011-06-14, 01:25:04,VALID,918.164,VALID,0,VALID,94.7667,VALID,0,VALID,19.4118,VALID,5,VALID,0.482812,
2011-06-14, 01:26:04,VALID,918.149,VALID,0,VALID,95.0716,VALID,0,VALID,19.4508,VALID,5,VALID,0.584375,
2011-06-14, 01:27:04,VALID,918.116,VALID,0,VALID,95.3003,VALID,0,VALID,19.4898,VALID,5,VALID,0.447656,
2011-06-14, 01:28:04,VALID,918.1,VALID,0,VALID,95.3994,VALID,0,VALID,19.5093,VALID,5,VALID,0.396484,
2011-06-14, 01:29:04,VALID,918.078,VALID,0,VALID,95.4223,VALID,0,VALID,19.5078,VALID,5,VALID,0.285156,
2011-06-14, 01:30:04,VALID,918.047,VALID,0,VALID,95.3842,VALID,0,VALID,19.5078,VALID,5,VALID,0.523047,
2011-06-14, 01:31:04,VALID,918.072,VALID,0,VALID,94.1339,VALID,0,VALID,19.3128,VALID,5,VALID,0.592969,
2011-06-14, 01:32:04,VALID,918.055,VALID,0,VALID,94.2026,VALID,0,VALID,19.2933,VALID,5,VALID,1.0207,
2011-06-14, 01:33:04,VALID,918.022,VALID,0,VALID,94.6295,VALID,0.107441,VALID,19.2738,VALID,5,VALID,1.07148,
2011-06-14, 01:34:04,VALID,918.025,VALID,0,VALID,94.9801,VALID,0,VALID,19.3128,VALID,5,VALID,1.04375,
2011-06-14, 01:35:04,VALID,918.034,VALID,0,VALID,94.8124,VALID,0,VALID,19.3308,VALID,5,VALID,0.386719,
2011-06-14, 01:36:04,VALID,918.023,VALID,0,VALID,94.8277,VALID,0,VALID,19.3308,VALID,5,VALID,0.205859,
2011-06-14, 01:37:04,VALID,918.007,VALID,0,VALID,94.6142,VALID,0,VALID,19.3308,VALID,5,VALID,0.34375,
2011-06-14, 01:38:04,VALID,917.982,VALID,0,VALID,94.5456,VALID,0,VALID,19.3323,VALID,5,VALID,0.609766,
2011-06-14, 01:39:04,VALID,917.982,VALID,0,VALID,94.9954,VALID,0.107441,VALID,19.3698,VALID,5,VALID,0.747266,
2011-06-14, 01:40:04,VALID,917.968,VALID,0,VALID,94.9954,VALID,0,VALID,19.4103,VALID,5,VALID,0.867188,
2011-06-14, 01:41:04,VALID,917.958,VALID,0,VALID,94.9115,VALID,0,VALID,19.4103,VALID,5,VALID,0.935547,
2011-06-14, 01:42:04,VALID,917.927,VALID,0,VALID,94.6981,VALID,0,VALID,19.3908,VALID,5,VALID,0.803906,
2011-06-14, 01:43:04,VALID,917.89,VALID,0,VALID,94.7743,VALID,0.107441,VALID,19.3908,VALID,5,VALID,0.925391,
2011-06-14, 01:44:04,VALID,917.844,VALID,0,VALID,94.6447,VALID,0,VALID,19.3503,VALID,5,VALID,0.955469,
2011-06-14, 01:45:04,VALID,917.786,VALID,0,VALID,94.66,VALID,0,VALID,19.3323,VALID,5,VALID,1.1875,
2011-06-14, 01:46:04,VALID,917.771,VALID,0,VALID,94.7514,VALID,0,VALID,19.3518,VALID,5,VALID,1.2457,
2011-06-14, 01:47:04,VALID,917.754,VALID,0,VALID,94.9115,VALID,0,VALID,19.3518,VALID,5,VALID,1.27227,
2011-06-14, 01:48:04,VALID,917.717,VALID,0,VALID,94.8429,VALID,0.107441,VALID,19.3113,VALID,5,VALID,0.940234,
2011-06-14, 01:49:04,VALID,917.706,VALID,0,VALID,94.8277,VALID,0.107441,VALID,19.3323,VALID,5,VALID,0.904688,
2011-06-14, 01:50:04,VALID,917.702,VALID,0,VALID,94.9878,VALID,0,VALID,19.3518,VALID,5,VALID,0.635156,
2011-06-14, 01:51:04,VALID,917.669,VALID,0,VALID,95.0945,VALID,0.107441,VALID,19.3713,VALID,5,VALID,0.586719,
2011-06-14, 01:52:04,VALID,917.727,VALID,0,VALID,95.1707,VALID,0,VALID,19.3908,VALID,5,VALID,0.556641,
2011-06-14, 01:53:04,VALID,917.677,VALID,0,VALID,95.1783,VALID,0,VALID,19.3893,VALID,5,VALID,0.855078,
2011-06-14, 01:54:04,VALID,917.683,VALID,0,VALID,95.1783,VALID,0,VALID,19.4103,VALID,5,VALID,0.915234,
2011-06-14, 01:55:04,VALID,917.7,VALID,0,VALID,95.003,VALID,0.107441,VALID,19.4088,VALID,5,VALID,1.00117,
2011-06-14, 01:56:04,VALID,917.675,VALID,0,VALID,95.0411,VALID,0,VALID,19.5078,VALID,5,VALID,1.20234,
2011-06-14, 01:57:04,VALID,917.681,VALID,0,VALID,94.8124,VALID,0.107441,VALID,19.5663,VALID,5,VALID,1.01016,
2011-06-14, 01:58:04,VALID,917.669,VALID,0,VALID,94.4389,VALID,0,VALID,19.6053,VALID,5,VALID,0.806641,
2011-06-14, 01:59:04,VALID,917.666,VALID,0,VALID,94.3703,VALID,0,VALID,19.6458,VALID,5,VALID,1.03594,
2011-06-14, 02:00:04,VALID,917.701,VALID,0,VALID,94.2407,VALID,0,VALID,19.7043,VALID,5,VALID,0.953906,
2011-06-14, 02:01:04,VALID,917.71,VALID,0,VALID,93.9662,VALID,0,VALID,19.7433,VALID,5,VALID,0.719531,
2011-06-14, 02:02:04,VALID,917.701,VALID,0,VALID,93.8824,VALID,0,VALID,19.7238,VALID,5,VALID,0.718359,
2011-06-14, 02:03:04,VALID,917.669,VALID,0,VALID,93.829,VALID,0,VALID,19.7433,VALID,5,VALID,0.607422,
2011-06-14, 02:04:04,VALID,917.681,VALID,0,VALID,93.8443,VALID,0,VALID,19.7223,VALID,5,VALID,0.477734,
2011-06-14, 02:05:04,VALID,917.682,VALID,0,VALID,93.8824,VALID,0,VALID,19.7223,VALID,5,VALID,0.451172,
2011-06-14, 02:06:04,VALID,917.662,VALID,0,VALID,93.8595,VALID,0,VALID,19.7223,VALID,5,VALID,0.353516,
2011-06-14, 02:07:04,VALID,917.651,VALID,0,VALID,93.9815,VALID,0,VALID,19.7418,VALID,4,VALID,0.290625,
2011-06-14, 02:08:04,VALID,917.605,VALID,0,VALID,93.7833,VALID,0,VALID,19.7223,VALID,5,VALID,0.325,
2011-06-14, 02:09:04,VALID,917.568,VALID,0,VALID,93.6689,VALID,0,VALID,19.7238,VALID,5,VALID,0.391406,
2011-06-14, 02:10:04,VALID,917.543,VALID,0,VALID,93.8671,VALID,0,VALID,19.7433,VALID,5,VALID,0.487891,
2011-06-14, 02:11:04,VALID,917.503,VALID,0,VALID,93.9891,VALID,0,VALID,19.7238,VALID,5,VALID,0.451953,
2011-06-14, 02:12:04,VALID,917.494,VALID,0,VALID,94.0653,VALID,0,VALID,19.7433,VALID,5,VALID,0.417969,
2011-06-14, 02:13:04,VALID,917.513,VALID,0,VALID,93.9738,VALID,0,VALID,19.7223,VALID,5,VALID,0.335938,
2011-06-14, 02:14:04,VALID,917.471,VALID,0,VALID,93.2572,VALID,0,VALID,19.6638,VALID,5,VALID,0.187891,
2011-06-14, 02:15:04,VALID,917.443,VALID,0,VALID,93.5927,VALID,0,VALID,19.6848,VALID,5,VALID,0.473828,
2011-06-14, 02:16:04,VALID,917.414,VALID,0,VALID,93.646,VALID,0,VALID,19.6458,VALID,5,VALID,0.949219,
2011-06-14, 02:17:04,VALID,917.389,VALID,0,VALID,93.7985,VALID,0,VALID,19.6443,VALID,5,VALID,0.633984,
2011-06-14, 02:18:04,VALID,917.36,VALID,0,VALID,93.9052,VALID,0,VALID,19.6248,VALID,5,VALID,0.516406,
2011-06-14, 02:19:04,VALID,917.315,VALID,0,VALID,94.073,VALID,0,VALID,19.6653,VALID,5,VALID,0.622656,
2011-06-14, 02:20:04,VALID,917.31,VALID,0,VALID,94.538,VALID,0,VALID,19.7043,VALID,5,VALID,0.471484,
2011-06-14, 02:21:04,VALID,917.314,VALID,0,VALID,94.6828,VALID,0,VALID,19.7418,VALID,5,VALID,0.405078,
2011-06-14, 02:22:04,VALID,917.307,VALID,0,VALID,94.538,VALID,0,VALID,19.7823,VALID,5,VALID,0.351953,
2011-06-14, 02:23:04,VALID,917.321,VALID,0,VALID,94.0882,VALID,0,VALID,19.7433,VALID,5,VALID,0.455469,
2011-06-14, 02:24:04,VALID,917.31,VALID,0,VALID,94.1949,VALID,0,VALID,19.8018,VALID,5,VALID,0.455078,
2011-06-14, 02:25:04,VALID,917.298,VALID,0,VALID,93.768,VALID,0,VALID,19.7418,VALID,5,VALID,0.808984,
2011-06-14, 02:26:04,VALID,917.312,VALID,0,VALID,93.8366,VALID,0,VALID,19.7418,VALID,5,VALID,0.65625,
2011-06-14, 02:27:04,VALID,917.324,VALID,0,VALID,94.1492,VALID,0,VALID,19.7613,VALID,5,VALID,0.613672,
2011-06-14, 02:28:04,VALID,917.314,VALID,0,VALID,94.3703,VALID,0,VALID,19.8003,VALID,5,VALID,0.567969,
2011-06-14, 02:29:04,VALID,917.306,VALID,0,VALID,94.6752,VALID,0,VALID,19.8588,VALID,5,VALID,0.725391,
2011-06-14, 02:30:04,VALID,917.292,VALID,0,VALID,94.538,VALID,0,VALID,19.9188,VALID,5,VALID,0.455469,
2011-06-14, 02:31:04,VALID,917.315,VALID,0,VALID,94.2635,VALID,0,VALID,19.9173,VALID,5,VALID,0.493359,
2011-06-14, 02:32:04,VALID,917.297,VALID,0,VALID,94.355,VALID,0,VALID,19.9758,VALID,5,VALID,0.625,
2011-06-14, 02:33:04,VALID,917.297,VALID,0,VALID,94.1797,VALID,0,VALID,19.9953,VALID,5,VALID,0.475,
2011-06-14, 02:34:04,VALID,917.272,VALID,0,VALID,94.1339,VALID,0,VALID,20.0148,VALID,5,VALID,0.308594,
2011-06-14, 02:35:04,VALID,917.256,VALID,0,VALID,94.1644,VALID,0,VALID,20.0538,VALID,5,VALID,0.175781,
2011-06-14, 02:36:04,VALID,917.273,VALID,0,VALID,94.1111,VALID,0,VALID,20.0928,VALID,5,VALID,0.167187,
2011-06-14, 02:37:04,VALID,917.266,VALID,0,VALID,93.9052,VALID,0,VALID,20.0928,VALID,5,VALID,0,
2011-06-14, 02:38:04,VALID,917.268,VALID,0,VALID,93.5469,VALID,0,VALID,20.0538,VALID,5,VALID,0.000390625,
2011-06-14, 02:39:04,VALID,917.233,VALID,0,VALID,93.6842,VALID,0,VALID,20.0928,VALID,5,VALID,0.152734,
2011-06-14, 02:40:04,VALID,917.254,VALID,0,VALID,93.6155,VALID,0,VALID,20.1318,VALID,5,VALID,0.585938,
2011-06-14, 02:41:04,VALID,917.215,VALID,0,VALID,92.7922,VALID,0,VALID,20.1123,VALID,5,VALID,0.766797,
2011-06-14, 02:42:04,VALID,917.233,VALID,0,VALID,93.2877,VALID,0,VALID,20.1708,VALID,5,VALID,0.605078,
2011-06-14, 02:43:04,VALID,917.265,VALID,0,VALID,93.4021,VALID,0,VALID,20.2098,VALID,4,VALID,0.500781,
2011-06-14, 02:44:04,VALID,917.267,VALID,0,VALID,93.4173,VALID,0,VALID,20.2098,VALID,5,VALID,0.532422,
2011-06-14, 02:45:04,VALID,917.219,VALID,0,VALID,93.5088,VALID,0,VALID,20.2293,VALID,5,VALID,0.533594,
2011-06-14, 02:46:04,VALID,917.217,VALID,0,VALID,93.7528,VALID,0,VALID,20.2879,VALID,5,VALID,0.719531,
2011-06-14, 02:47:04,VALID,917.237,VALID,0,VALID,93.4783,VALID,0,VALID,20.3058,VALID,5,VALID,0.783984,
2011-06-14, 02:48:04,VALID,917.186,VALID,0,VALID,92.8303,VALID,0,VALID,20.2879,VALID,5,VALID,0.370313,
2011-06-14, 02:49:04,VALID,917.19,VALID,0,VALID,92.594,VALID,0,VALID,20.2684,VALID,5,VALID,0,
2011-06-14, 02:50:04,VALID,917.147,VALID,0,VALID,92.7389,VALID,0,VALID,20.2489,VALID,5,VALID,0,
2011-06-14, 02:51:04,VALID,917.151,VALID,0,VALID,93.2268,VALID,0,VALID,20.2473,VALID,5,VALID,0.232812,
2011-06-14, 02:52:04,VALID,917.142,VALID,0,VALID,93.4021,VALID,0,VALID,20.2863,VALID,5,VALID,0.00507812,
2011-06-14, 02:53:04,VALID,917.162,VALID,0,VALID,93.1124,VALID,0,VALID,20.3074,VALID,5,VALID,0,
2011-06-14, 02:54:04,VALID,917.122,VALID,0,VALID,92.8532,VALID,0,VALID,20.3269,VALID,5,VALID,0,
2011-06-14, 02:55:04,VALID,917.148,VALID,0,VALID,93.0819,VALID,0,VALID,20.3269,VALID,5,VALID,0.130859,
2011-06-14, 02:56:04,VALID,917.105,VALID,0,VALID,92.7922,VALID,0,VALID,20.3269,VALID,5,VALID,0,
2011-06-14, 02:57:04,VALID,917.073,VALID,0,VALID,92.2433,VALID,0,VALID,20.2684,VALID,5,VALID,0.349219,
2011-06-14, 02:58:04,VALID,917.09,VALID,0,VALID,92.7007,VALID,0,VALID,20.2684,VALID,5,VALID,0.325391,
2011-06-14, 02:59:04,VALID,917.099,VALID,0,VALID,92.7465,VALID,0,VALID,20.2293,VALID,5,VALID,0.202734,
2011-06-14, 03:00:04,VALID,917.092,VALID,0,VALID,93.0972,VALID,0,VALID,20.2098,VALID,5,VALID,0.253125,
2011-06-14, 03:01:04,VALID,917.099,VALID,0,VALID,92.8151,VALID,0,VALID,20.1708,VALID,4,VALID,0.299609,
2011-06-14, 03:02:04,VALID,917.145,VALID,0,VALID,93.181,VALID,0,VALID,20.1708,VALID,5,VALID,0.448047,
2011-06-14, 03:03:04,VALID,917.148,VALID,0,VALID,93.4021,VALID,0,VALID,20.1708,VALID,5,VALID,0.4125,
2011-06-14, 03:04:04,VALID,917.168,VALID,0,VALID,92.0832,VALID,0,VALID,20.0538,VALID,5,VALID,0.271875,
2011-06-14, 03:05:04,VALID,917.172,VALID,0,VALID,92.9447,VALID,0,VALID,20.0538,VALID,4,VALID,0.371484,
2011-06-14, 03:06:04,VALID,917.172,VALID,0,VALID,93.0895,VALID,0,VALID,19.9758,VALID,5,VALID,0.0210938,
2011-06-14, 03:07:04,VALID,917.212,VALID,0,VALID,93.6537,VALID,0,VALID,19.9758,VALID,5,VALID,0.180859,
2011-06-14, 03:08:04,VALID,917.213,VALID,0,VALID,93.7147,VALID,0,VALID,19.9173,VALID,5,VALID,0.171484,
2011-06-14, 03:09:04,VALID,917.183,VALID,0,VALID,93.8061,VALID,0,VALID,19.8783,VALID,5,VALID,0.332812,
2011-06-14, 03:10:04,VALID,917.165,VALID,0,VALID,94.2026,VALID,0,VALID,19.9188,VALID,5,VALID,0.44375,
2011-06-14, 03:11:04,VALID,917.156,VALID,0,VALID,94.5837,VALID,0,VALID,19.9368,VALID,5,VALID,0.341406,
2011-06-14, 03:12:04,VALID,917.127,VALID,0,VALID,94.5685,VALID,0,VALID,19.9383,VALID,5,VALID,0,
2011-06-14, 03:13:04,VALID,917.08,VALID,0,VALID,94.6905,VALID,0,VALID,19.9368,VALID,5,VALID,0,
2011-06-14, 03:14:04,VALID,917.052,VALID,0,VALID,94.8277,VALID,0,VALID,19.9563,VALID,5,VALID,0,
2011-06-14, 03:15:04,VALID,917.044,VALID,0,VALID,94.9496,VALID,0,VALID,19.9953,VALID,4,VALID,0,
2011-06-14, 03:16:04,VALID,917.054,VALID,0,VALID,94.66,VALID,0,VALID,19.9758,VALID,5,VALID,0.319141,
2011-06-14, 03:17:04,VALID,917.051,VALID,0,VALID,92.7846,VALID,0,VALID,19.8003,VALID,5,VALID,0.35,
2011-06-14, 03:18:04,VALID,917.04,VALID,0,VALID,93.1886,VALID,0,VALID,19.7418,VALID,5,VALID,0.0800781,
2011-06-14, 03:19:04,VALID,917.024,VALID,0,VALID,93.9357,VALID,0,VALID,19.7613,VALID,5,VALID,0.120703,
2011-06-14, 03:20:04,VALID,917.036,VALID,0,VALID,94.1416,VALID,0,VALID,19.7223,VALID,5,VALID,0,
2011-06-14, 03:21:04,VALID,917.016,VALID,0,VALID,94.6295,VALID,0,VALID,19.7418,VALID,5,VALID,0,
2011-06-14, 03:22:04,VALID,917.005,VALID,0,VALID,94.4541,VALID,0,VALID,19.6833,VALID,5,VALID,0.141797,
2011-06-14, 03:23:04,VALID,917.026,VALID,0,VALID,94.3321,VALID,0,VALID,19.6038,VALID,5,VALID,0.284766,
2011-06-14, 03:24:04,VALID,917.003,VALID,0,VALID,94.4465,VALID,0,VALID,19.6053,VALID,5,VALID,0.563281,
2011-06-14, 03:25:04,VALID,917.052,VALID,0,VALID,94.3779,VALID,0,VALID,19.5468,VALID,5,VALID,0.590234,
2011-06-14, 03:26:04,VALID,917.028,VALID,0,VALID,94.0501,VALID,0,VALID,19.4508,VALID,4,VALID,0.791797,
2011-06-14, 03:27:04,VALID,917.006,VALID,0,VALID,94.2712,VALID,0,VALID,19.3518,VALID,5,VALID,0.861328,
2011-06-14, 03:28:04,VALID,917.022,VALID,0,VALID,94.6447,VALID,0,VALID,19.3323,VALID,5,VALID,0.566797,
2011-06-14, 03:29:04,VALID,917.024,VALID,0,VALID,94.8734,VALID,0,VALID,19.3323,VALID,4,VALID,0.351953,
2011-06-14, 03:30:04,VALID,917.018,VALID,0,VALID,94.9725,VALID,0,VALID,19.2334,VALID,5,VALID,0.173438,
2011-06-14, 03:31:04,VALID,917.025,VALID,0,VALID,94.7743,VALID,0,VALID,19.1958,VALID,5,VALID,0.325,
2011-06-14, 03:32:04,VALID,917.001,VALID,0,VALID,94.6371,VALID,0,VALID,19.1388,VALID,5,VALID,0.0886719,
2011-06-14, 03:33:04,VALID,917.008,VALID,0,VALID,95.0792,VALID,0,VALID,19.1568,VALID,5,VALID,0.199219,
2011-06-14, 03:34:04,VALID,916.956,VALID,0,VALID,94.9573,VALID,0,VALID,19.0398,VALID,5,VALID,0.367969,
2011-06-14, 03:35:04,VALID,916.99,VALID,0,VALID,95.2927,VALID,0,VALID,19.0203,VALID,5,VALID,0.344922,
2011-06-14, 03:36:04,VALID,916.987,VALID,0,VALID,95.4604,VALID,0,VALID,19.0203,VALID,5,VALID,0.528516,
2011-06-14, 03:37:04,VALID,916.959,VALID,0,VALID,95.8873,VALID,0,VALID,19.1568,VALID,5,VALID,0.602344,
2011-06-14, 03:38:04,VALID,916.958,VALID,0,VALID,96.1389,VALID,0,VALID,19.2153,VALID,5,VALID,0.708594,
2011-06-14, 03:39:04,VALID,916.994,VALID,0,VALID,96.2685,VALID,0,VALID,19.2753,VALID,5,VALID,0.718359,
2011-06-14, 03:40:04,VALID,917.007,VALID,0,VALID,96.4133,VALID,0,VALID,19.3323,VALID,5,VALID,0.794141,
2011-06-14, 03:41:04,VALID,917.016,VALID,0,VALID,96.5048,VALID,0,VALID,19.3908,VALID,5,VALID,0.621484,
2011-06-14, 03:42:04,VALID,917.019,VALID,0,VALID,96.4286,VALID,0,VALID,19.3713,VALID,5,VALID,0.468359,
2011-06-14, 03:43:04,VALID,917.009,VALID,0,VALID,96.3524,VALID,0,VALID,19.3713,VALID,5,VALID,0.300391,
2011-06-14, 03:44:04,VALID,917.002,VALID,0,VALID,96.3829,VALID,0,VALID,19.3713,VALID,5,VALID,0.292969,
2011-06-14, 03:45:04,VALID,916.959,VALID,0,VALID,96.3905,VALID,0,VALID,19.4103,VALID,5,VALID,0.344141,
2011-06-14, 03:46:04,VALID,916.96,VALID,0,VALID,96.4362,VALID,0,VALID,19.4313,VALID,5,VALID,0.335938,
2011-06-14, 03:47:04,VALID,916.948,VALID,0,VALID,96.3371,VALID,0,VALID,19.4118,VALID,5,VALID,0.426953,
2011-06-14, 03:48:04,VALID,916.963,VALID,0,VALID,96.2609,VALID,0,VALID,19.3518,VALID,5,VALID,0.307031,
2011-06-14, 03:49:04,VALID,916.961,VALID,0,VALID,96.177,VALID,0,VALID,19.3128,VALID,5,VALID,0.254297,